QPF
0.00 0.00 0.00 0.00 0.00 0.00 0.00 0.01 0.00 0.00 0.00 0.00 0.00 0.00 0.00 0.00 0.00 0.00 0.00 0.00 0.00 0.00 0.00 0.00 0.00 0.00 0.00 0.00 0.00 0.00 0.00 0.00 0.00 0.00 0.00 0.00 0.00 0.00 0.00 0.00 0.00 0.00 0.00 0.00
0.00 0.00 0.00 0.00 0.00 0.00 0.00 0.00 0.00 0.00 0.00 0.00 0.00 0.00 0.00 0.00 0.00 0.00 0.00 0.00 0.00 0.00 0.00 0.00 0.00 0.00 0.00 0.00 0.00 0.00 0.00 0.00 0.00 0.00 0.00 0.00 0.00 0.00 0.00 0.00 0.00 0.00 0.00 0.00
0.00 0.00 0.00 0.00 0.00 0.00 0.00 0.00 0.00 0.00 0.00 0.00 0.00 0.00 0.00 0.00 0.00 0.00 0.00 0.00 0.00 0.00 0.00 0.00 0.00 0.00 0.00 0.00 0.00 0.00 0.00 0.00 0.00 0.00 0.00 0.00 0.00 0.00 0.00 0.00 0.00 0.00 0.00 0.00
0.00 0.00 0.00 0.00 0.00 0.00 0.00 0.00 0.00 0.00 0.00 0.00 0.00 0.00 0.00 0.00 0.00 0.00 0.00 0.00 0.00 0.00 0.00 0.00 0.00 0.00 0.00 0.00 0.00 0.00 0.00 0.00 0.00 0.00 0.00 0.00 0.00 0.00 0.00 0.00 0.00 0.00 0.00 0.00
0.00 0.00 0.00 0.00 0.00 0.00 0.00 0.00 0.00 0.00 0.00 0.00 0.00 0.00 0.00 0.00 0.00 0.00 0.00 0.00 0.00 0.00 0.00 0.00 0.00 0.00 0.00 0.00 0.00 0.00 0.00 0.00 0.00 0.00 0.00 0.00 0.00 0.00 0.00 0.00 0.00 0.00 0.00 0.00
0.00 0.00 0.00 0.00 0.00 0.00 0.00 0.00 0.00 0.00 0.00 0.00 0.00 0.00 0.00 0.00 0.00 0.00 0.00 0.00 0.00 0.00 0.00 0.00 0.00 0.00 0.00 0.00 0.00 0.00 0.00 0.00 0.00 0.00 0.00 0.00 0.00 0.00 0.00 0.00 0.00 0.00 0.00 0.00
0.01 0.01 0.00 0.00 0.00 0.00 0.00 0.00 0.00 0.00 0.00 0.00 0.00 0.00 0.00 0.00 0.00 0.00 0.00 0.00 0.00 0.00 0.00 0.00 0.00 0.00 0.00 0.00 0.00 0.00 0.00 0.00 0.00 0.00 0.00 0.00 0.00 0.00 0.00 0.00 0.00 0.00 0.00 0.00
0.00 0.01 0.00 0.00 0.00 0.00 0.00 0.00 0.00 0.00 0.00 0.00 0.00 0.00 0.00 0.00 0.00 0.00 0.00 0.00 0.00 0.00 0.00 0.00 0.00 0.00 0.00 0.00 0.00 0.00 0.00 0.00 0.00 0.00 0.00 0.00 0.00 0.00 0.00 0.00 0.00 0.00 0.00 0.00
0.00 0.00 0.00 0.00 0.00 0.00 0.00 0.00 0.00 0.00 0.00 0.00 0.00 0.00 0.00 0.00 0.00 0.00 0.00 0.00 0.00 0.00 0.00 0.00 0.00 0.00 0.00 0.00 0.00 0.00 0.00 0.00 0.00 0.00 0.00 0.00 0.00 0.00 0.00 0.00 0.00 0.00 0.00 0.00
0.00 0.00 0.00 0.00 0.00 0.00 0.00 0.00 0.00 0.00 0.00 0.00 0.01 0.01 0.01 0.01 0.01 0.01 0.01 0.01 0.01 0.01 0.00 0.00 0.00 0.00 0.00 0.00 0.00 0.00 0.00 0.00 0.00 0.00 0.00 0.00 0.00 0.00 0.00 0.00 0.00 0.00 0.00 0.00
0.00 0.00 0.00 0.00 0.00 0.00 0.00 0.00 0.00 0.00 0.01 0.01 0.01 0.01 0.01 0.02 0.02 0.01 0.02 0.02 0.02 0.02 0.01 0.01 0.01 0.01 0.00 0.00 0.00 0.00 0.00 0.00 0.00 0.00 0.00 0.00 0.00 0.00 0.00 0.00 0.00 0.00 0.00 0.00
0.00 0.00 0.00 0.00 0.00 0.00 0.00 0.00 0.00 0.01 0.01 0.01 0.00 0.01 0.01 0.01 0.01 0.02 0.02 0.02 0.02 0.02 0.01 0.01 0.01 0.01 0.01 0.00 0.00 0.00 0.00 0.00 0.00 0.00 0.00 0.00 0.00 0.00 0.00 0.00 0.00 0.00 0.00 0.00
0.00 0.00 0.00 0.00 0.00 0.00 0.00 0.00 0.00 0.00 0.00 0.00 0.00 0.00 0.00 0.01 0.01 0.01 0.01 0.01 0.01 0.01 0.01 0.01 0.01 0.01 0.01 0.00 0.00 0.00 0.00 0.00 0.00 0.00 0.00 0.00 0.00 0.00 0.00 0.00 0.00 0.00 0.00 0.00
0.00 0.00 0.00 0.00 0.00 0.00 0.00 0.00 0.00 0.00 0.00 0.00 0.00 0.00 0.00 0.00 0.01 0.01 0.01 0.01 0.01 0.01 0.01 0.01 0.01 0.01 0.01 0.01 0.01 0.00 0.00 0.00 0.00 0.00 0.00 0.00 0.00 0.00 0.00 0.00 0.00 0.00 0.00 0.00
0.00 0.00 0.00 0.01 0.02 0.01 0.01 0.01 0.01 0.01 0.01 0.01 0.01 0.00 0.00 0.00 0.00 0.00 0.01 0.01 0.01 0.01 0.01 0.01 0.01 0.01 0.01 0.00 0.00 0.01 0.01 0.01 0.01 0.01 0.01 0.01 0.00 0.00 0.00 0.00 0.00 0.00 0.00 0.00
0.01 0.01 0.00 0.01 0.02 0.03 0.03 0.03 0.02 0.01 0.01 0.01 0.01 0.00 0.00 0.00 0.00 0.00 0.00 0.00 0.00 0.01 0.01 0.01 0.01 0.01 0.01 0.01 0.01 0.01 0.01 0.02 0.02 0.02 0.01 0.01 0.01 0.01 0.00 0.00 0.00 0.00 0.00 0.00
0.03 0.03 0.04 0.04 0.03 0.04 0.05 0.04 0.03 0.02 0.01 0.01 0.01 0.01 0.00 0.00 0.00 0.00 0.00 0.00 0.00 0.00 0.00 0.01 0.01 0.02 0.02 0.01 0.01 0.01 0.02 0.03 0.04 0.03 0.02 0.01 0.01 0.01 0.01 0.01 0.00 0.00 0.00 0.00
0.04 0.05 0.06 0.08 0.08 0.07 0.07 0.06 0.04 0.03 0.02 0.02 0.01 0.01 0.01 0.01 0.00 0.00 0.00 0.00 0.00 0.00 0.00 0.00 0.00 0.01 0.01 0.01 0.01 0.01 0.01 0.02 0.03 0.02 0.02 0.02 0.02 0.02 0.01 0.01 0.01 0.01 0.01 0.00
0.03 0.04 0.05 0.06 0.08 0.09 0.09 0.07 0.05 0.04 0.03 0.02 0.02 0.01 0.01 0.01 0.00 0.00 0.00 0.00 0.00 0.00 0.00 0.00 0.00 0.00 0.00 0.01 0.01 0.01 0.02 0.02 0.02 0.03 0.03 0.03 0.03 0.03 0.02 0.02 0.01 0.01 0.01 0.01
0.03 0.04 0.05 0.06 0.07 0.08 0.08 0.07 0.07 0.05 0.04 0.03 0.02 0.01 0.01 0.00 0.00 0.00 0.00 0.00 0.00 0.00 0.00 0.00 0.00 0.00 0.01 0.01 0.02 0.01 0.02 0.02 0.03 0.03 0.04 0.04 0.04 0.03 0.03 0.02 0.02 0.01 0.01 0.01
0.04 0.04 0.04 0.04 0.05 0.06 0.07 0.07 0.07 0.07 0.05 0.03 0.02 0.01 0.01 0.00 0.00 0.00 0.00 0.00 0.00 0.00 0.00 0.00 0.00 0.00 0.01 0.01 0.02 0.02 0.02 0.02 0.03 0.03 0.04 0.04 0.04 0.04 0.03 0.02 0.02 0.01 0.01 0.01
0.04 0.04 0.03 0.03 0.03 0.04 0.04 0.05 0.06 0.06 0.05 0.03 0.02 0.01 0.01 0.00 0.00 0.00 0.00 0.00 0.00 0.00 0.00 0.00 0.00 0.00 0.00 0.01 0.01 0.01 0.02 0.03 0.04 0.04 0.04 0.04 0.03 0.03 0.03 0.02 0.02 0.01 0.01 0.01
0.05 0.05 0.04 0.03 0.02 0.02 0.02 0.03 0.04 0.04 0.03 0.03 0.02 0.02 0.01 0.01 0.01 0.00 0.00 0.00 0.00 0.00 0.00 0.00 0.00 0.00 0.01 0.01 0.01 0.02 0.02 0.03 0.04 0.04 0.04 0.04 0.03 0.03 0.03 0.02 0.02 0.01 0.01 0.01
0.03 0.04 0.04 0.03 0.03 0.03 0.03 0.02 0.02 0.02 0.01 0.01 0.01 0.01 0.01 0.00 0.00 0.00 0.00 0.00 0.00 0.00 0.00 0.00 0.00 0.01 0.01 0.01 0.02 0.02 0.03 0.03 0.03 0.03 0.04 0.04 0.03 0.03 0.02 0.02 0.01 0.01 0.01 0.01
0.03 0.03 0.02 0.02 0.02 0.02 0.02 0.01 0.01 0.01 0.01 0.00 0.00 0.00 0.00 0.00 0.00 0.00 0.00 0.00 0.00 0.00 0.00 0.00 0.00 0.01 0.01 0.01 0.02 0.02 0.02 0.03 0.03 0.03 0.03 0.03 0.02 0.02 0.02 0.01 0.01 0.01 0.01 0.01
0.03 0.03 0.02 0.02 0.02 0.01 0.01 0.01 0.01 0.00 0.00 0.00 0.00 0.00 0.00 0.00 0.00 0.00 0.00 0.00 0.00 0.00 0.00 0.00 0.00 0.01 0.01 0.01 0.02 0.02 0.02 0.02 0.03 0.02 0.02 0.02 0.02 0.01 0.01 0.01 0.01 0.01 0.01 0.00
0.02 0.02 0.02 0.01 0.01 0.01 0.01 0.00 0.00 0.00 0.00 0.00 0.00 0.00 0.00 0.00 0.00 0.00 0.00 0.00 0.00 0.00 0.00 0.00 0.01 0.01 0.01 0.01 0.01 0.01 0.01 0.02 0.01 0.01 0.01 0.01 0.01 0.01 0.01 0.00 0.00 0.00 0.00 0.00
MSLP
1016.17 1016.42 1016.63 1016.80 1016.90 1016.90 1016.77 1016.52 1016.14 1015.67 1015.14 1014.61 1014.14 1013.78 1013.59 1013.58 1013.77 1014.14 1014.68 1015.33 1016.05 1016.78 1017.49 1018.13 1018.69 1019.15 1019.52 1019.80 1020.01 1020.17 1020.29 1020.39 1020.49 1020.60 1020.73 1020.87 1021.02 1021.18 1021.33 1021.46 1021.57 1021.64 1021.68 1021.70
1016.60 1016.76 1016.85 1016.85 1016.76 1016.56 1016.25 1015.85 1015.38 1014.85 1014.32 1013.83 1013.42 1013.14 1013.02 1013.06 1013.29 1013.68 1014.21 1014.85 1015.55 1016.28 1016.99 1017.66 1018.27 1018.80 1019.24 1019.59 1019.87 1020.09 1020.26 1020.41 1020.54 1020.68 1020.83 1021.00 1021.18 1021.36 1021.54 1021.71 1021.85 1021.97 1022.05 1022.11
1016.90 1016.98 1016.96 1016.82 1016.56 1016.19 1015.73 1015.19 1014.62 1014.05 1013.51 1013.04 1012.68 1012.46 1012.39 1012.50 1012.76 1013.17 1013.71 1014.35 1015.05 1015.78 1016.51 1017.21 1017.86 1018.44 1018.93 1019.35 1019.69 1019.96 1020.18 1020.37 1020.54 1020.71 1020.90 1021.10 1021.32 1021.54 1021.77 1021.99 1022.18 1022.34 1022.46 1022.56
1016.98 1017.01 1016.90 1016.65 1016.27 1015.77 1015.19 1014.55 1013.91 1013.30 1012.76 1012.31 1012.00 1011.84 1011.83 1011.98 1012.29 1012.73 1013.29 1013.94 1014.65 1015.39 1016.13 1016.85 1017.53 1018.14 1018.67 1019.12 1019.50 1019.81 1020.06 1020.29 1020.50 1020.71 1020.94 1021.20 1021.47 1021.75 1022.04 1022.31 1022.55 1022.75 1022.91 1023.03
1016.88 1016.86 1016.69 1016.36 1015.90 1015.32 1014.66 1013.97 1013.30 1012.67 1012.14 1011.73 1011.47 1011.36 1011.42 1011.62 1011.98 1012.45 1013.03 1013.70 1014.42 1015.16 1015.91 1016.64 1017.32 1017.94 1018.48 1018.94 1019.33 1019.66 1019.94 1020.20 1020.45 1020.71 1021.00 1021.31 1021.64 1021.99 1022.34 1022.66 1022.94 1023.17 1023.34 1023.46
1016.66 1016.59 1016.38 1016.01 1015.50 1014.89 1014.21 1013.50 1012.83 1012.22 1011.73 1011.36 1011.16 1011.11 1011.22 1011.47 1011.86 1012.37 1012.97 1013.65 1014.37 1015.11 1015.85 1016.56 1017.22 1017.83 1018.36 1018.82 1019.21 1019.54 1019.84 1020.13 1020.42 1020.73 1021.07 1021.44 1021.84 1022.24 1022.64 1023.00 1023.30 1023.54 1023.70 1023.80
1016.43 1016.33 1016.08 1015.68 1015.16 1014.54 1013.87 1013.19 1012.55 1011.99 1011.54 1011.23 1011.07 1011.08 1011.23 1011.53 1011.95 1012.47 1013.08 1013.75 1014.45 1015.17 1015.88 1016.56 1017.20 1017.77 1018.28 1018.72 1019.10 1019.44 1019.76 1020.07 1020.40 1020.76 1021.15 1021.58 1022.02 1022.47 1022.89 1023.27 1023.57 1023.79 1023.93 1023.97
1016.33 1016.17 1015.88 1015.47 1014.95 1014.35 1013.71 1013.07 1012.47 1011.96 1011.57 1011.31 1011.20 1011.24 1011.42 1011.74 1012.16 1012.68 1013.27 1013.92 1014.59 1015.27 1015.94 1016.57 1017.16 1017.70 1018.18 1018.60 1018.98 1019.33 1019.66 1020.01 1020.38 1020.78 1021.22 1021.68 1022.16 1022.62 1023.05 1023.41 1023.69 1023.87 1023.95 1023.95
1016.42 1016.19 1015.86 1015.42 1014.90 1014.32 1013.71 1013.11 1012.57 1012.11 1011.76 1011.54 1011.46 1011.52 1011.71 1012.01 1012.42 1012.90 1013.46 1014.05 1014.67 1015.29 1015.90 1016.49 1017.03 1017.54 1017.99 1018.40 1018.78 1019.15 1019.52 1019.90 1020.31 1020.75 1021.22 1021.71 1022.19 1022.65 1023.05 1023.38 1023.61 1023.74 1023.77 1023.71
1016.71 1016.40 1016.01 1015.54 1015.01 1014.43 1013.84 1013.28 1012.77 1012.35 1012.03 1011.83 1011.76 1011.81 1011.98 1012.26 1012.62 1013.05 1013.54 1014.07 1014.62 1015.17 1015.72 1016.25 1016.75 1017.22 1017.66 1018.07 1018.47 1018.86 1019.27 1019.69 1020.14 1020.61 1021.10 1021.59 1022.07 1022.50 1022.86 1023.14 1023.31 1023.39 1023.36 1023.27
1017.17 1016.76 1016.30 1015.78 1015.21 1014.63 1014.05 1013.50 1013.01 1012.61 1012.30 1012.10 1012.02 1012.05 1012.19 1012.41 1012.71 1013.07 1013.48 1013.93 1014.40 1014.87 1015.35 1015.82 1016.28 1016.73 1017.16 1017.58 1018.00 1018.43 1018.87 1019.33 1019.81 1020.31 1020.81 1021.29 1021.74 1022.13 1022.45 1022.67 1022.80 1022.84 1022.79 1022.68
1017.68 1017.18 1016.63 1016.05 1015.45 1014.84 1014.24 1013.70 1013.21 1012.81 1012.50 1012.30 1012.20 1012.20 1012.29 1012.46 1012.69 1012.98 1013.30 1013.66 1014.05 1014.44 1014.85 1015.26 1015.68 1016.10 1016.52 1016.95 1017.39 1017.84 1018.32 1018.81 1019.31 1019.82 1020.32 1020.78 1021.20 1021.56 1021.83 1022.02 1022.12 1022.13 1022.08 1021.99
1018.13 1017.55 1016.94 1016.30 1015.64 1015.00 1014.39 1013.83 1013.35 1012.94 1012.64 1012.42 1012.31 1012.28 1012.33 1012.45 1012.62 1012.83 1013.08 1013.36 1013.66 1013.97 1014.30 1014.65 1015.02 1015.40 1015.80 1016.22 1016.66 1017.13 1017.62 1018.13 1018.64 1019.15 1019.64 1020.08 1020.48 1020.81 1021.05 1021.22 1021.32 1021.34 1021.33 1021.29
1018.45 1017.82 1017.15 1016.46 1015.78 1015.11 1014.49 1013.92 1013.44 1013.04 1012.74 1012.53 1012.41 1012.37 1012.40 1012.48 1012.60 1012.75 1012.93 1013.13 1013.34 1013.58 1013.83 1014.10 1014.40 1014.73 1015.09 1015.48 1015.91 1016.37 1016.85 1017.35 1017.85 1018.35 1018.82 1019.25 1019.62 1019.93 1020.18 1020.35 1020.46 1020.53 1020.57 1020.60
1018.61 1017.96 1017.27 1016.56 1015.86 1015.19 1014.57 1014.02 1013.54 1013.17 1012.88 1012.69 1012.59 1012.55 1012.57 1012.63 1012.73 1012.83 1012.95 1013.08 1013.22 1013.36 1013.52 1013.71 1013.93 1014.18 1014.48 1014.82 1015.20 1015.62 1016.07 1016.54 1017.02 1017.49 1017.94 1018.35 1018.71 1019.02 1019.27 1019.46 1019.62 1019.74 1019.85 1019.96
1018.65 1018.01 1017.33 1016.64 1015.95 1015.30 1014.70 1014.18 1013.74 1013.40 1013.15 1012.99 1012.92 1012.90 1012.93 1012.99 1013.06 1013.14 1013.20 1013.27 1013.32 1013.38 1013.45 1013.54 1013.66 1013.82 1014.03 1014.29 1014.60 1014.96 1015.35 1015.78 1016.21 1016.65 1017.07 1017.46 1017.82 1018.13 1018.40 1018.63 1018.83 1019.02 1019.19 1019.37
1018.63 1018.03 1017.40 1016.75 1016.11 1015.50 1014.95 1014.47 1014.08 1013.79 1013.59 1013.48 1013.43 1013.45 1013.49 1013.55 1013.61 1013.66 1013.68 1013.68 1013.66 1013.64 1013.61 1013.60 1013.61 1013.67 1013.78 1013.94 1014.17 1014.44 1014.77 1015.13 1015.51 1015.90 1016.29 1016.66 1017.01 1017.33 1017.62 1017.89 1018.13 1018.37 1018.60 1018.84
1018.61 1018.08 1017.52 1016.93 1016.36 1015.82 1015.33 1014.91 1014.59 1014.35 1014.20 1014.13 1014.12 1014.16 1014.22 1014.28 1014.32 1014.34 1014.31 1014.26 1014.17 1014.05 1013.94 1013.83 1013.74 1013.70 1013.70 1013.77 1013.90 1014.09 1014.34 1014.63 1014.95 1015.30 1015.65 1016.00 1016.33 1016.66 1016.96 1017.25 1017.53 1017.80 1018.07 1018.34
1018.63 1018.19 1017.70 1017.20 1016.71 1016.24 1015.83 1015.48 1015.22 1015.03 1014.93 1014.89 1014.90 1014.95 1015.01 1015.05 1015.07 1015.05 1014.98 1014.87 1014.71 1014.53 1014.33 1014.14 1013.97 1013.84 1013.76 1013.74 1013.79 1013.90 1014.07 1014.30 1014.56 1014.86 1015.17 1015.49 1015.81 1016.12 1016.43 1016.73 1017.02 1017.30 1017.59 1017.86
1018.71 1018.34 1017.93 1017.51 1017.10 1016.71 1016.37 1016.09 1015.88 1015.74 1015.66 1015.64 1015.66 1015.70 1015.74 1015.76 1015.74 1015.68 1015.57 1015.40 1015.19 1014.95 1014.70 1014.44 1014.21 1014.02 1013.87 1013.79 1013.78 1013.83 1013.94 1014.11 1014.32 1014.56 1014.83 1015.11 1015.41 1015.70 1015.99 1016.28 1016.57 1016.85 1017.13 1017.40
1018.78 1018.47 1018.13 1017.79 1017.45 1017.14 1016.86 1016.64 1016.47 1016.36 1016.30 1016.28 1016.29 1016.31 1016.32 1016.30 1016.24 1016.13 1015.98 1015.77 1015.52 1015.24 1014.95 1014.67 1014.40 1014.18 1014.00 1013.88 1013.82 1013.83 1013.90 1014.01 1014.18 1014.37 1014.60 1014.84 1015.10 1015.36 1015.62 1015.89 1016.16 1016.43 1016.69 1016.94
1018.80 1018.53 1018.24 1017.96 1017.68 1017.43 1017.22 1017.04 1016.91 1016.82 1016.76 1016.74 1016.72 1016.71 1016.67 1016.61 1016.51 1016.37 1016.18 1015.94 1015.67 1015.38 1015.08 1014.79 1014.52 1014.29 1014.10 1013.96 1013.89 1013.87 1013.90 1013.98 1014.10 1014.25 1014.42 1014.62 1014.83 1015.06 1015.29 1015.52 1015.76 1016.01 1016.25 1016.48
1018.71 1018.45 1018.20 1017.96 1017.74 1017.54 1017.37 1017.23 1017.13 1017.06 1017.00 1016.96 1016.93 1016.88 1016.82 1016.72 1016.59 1016.42 1016.20 1015.96 1015.69 1015.40 1015.11 1014.84 1014.58 1014.36 1014.18 1014.04 1013.96 1013.92 1013.92 1013.97 1014.04 1014.15 1014.28 1014.42 1014.59 1014.76 1014.96 1015.16 1015.37 1015.59 1015.81 1016.03
1018.48 1018.23 1018.00 1017.79 1017.61 1017.45 1017.32 1017.22 1017.14 1017.08 1017.03 1016.98 1016.93 1016.87 1016.78 1016.67 1016.52 1016.34 1016.13 1015.89 1015.64 1015.37 1015.11 1014.86 1014.63 1014.42 1014.26 1014.13 1014.03 1013.98 1013.95 1013.96 1014.00 1014.05 1014.13 1014.23 1014.34 1014.47 1014.63 1014.80 1014.98 1015.18 1015.39 1015.60
1018.14 1017.89 1017.66 1017.47 1017.32 1017.19 1017.09 1017.02 1016.97 1016.92 1016.89 1016.85 1016.80 1016.74 1016.65 1016.54 1016.40 1016.23 1016.04 1015.82 1015.60 1015.36 1015.13 1014.91 1014.71 1014.52 1014.36 1014.23 1014.13 1014.05 1013.99 1013.96 1013.95 1013.96 1013.98 1014.03 1014.10 1014.19 1014.30 1014.44 1014.61 1014.79 1014.98 1015.19
1017.73 1017.47 1017.25 1017.07 1016.93 1016.82 1016.75 1016.70 1016.67 1016.66 1016.64 1016.62 1016.59 1016.55 1016.49 1016.40 1016.29 1016.15 1016.00 1015.82 1015.63 1015.44 1015.24 1015.04 1014.85 1014.68 1014.52 1014.37 1014.25 1014.14 1014.04 1013.96 1013.90 1013.86 1013.84 1013.84 1013.87 1013.92 1014.01 1014.12 1014.26 1014.42 1014.61 1014.79
1017.31 1017.04 1016.82 1016.64 1016.51 1016.41 1016.36 1016.32 1016.31 1016.32 1016.33 1016.34 1016.35 1016.34 1016.32 1016.28 1016.22 1016.13 1016.03 1015.90 1015.75 1015.59 1015.42 1015.25 1015.07 1014.89 1014.71 1014.54 1014.38 1014.24 1014.10 1013.98 1013.87 1013.78 1013.72 1013.68 1013.67 1013.69 1013.75 1013.84 1013.95 1014.09 1014.25 1014.42
Thickness
5500 5506 5504 5505 5509 5510 5511 5515 5515 5523 5525 5542 5546 5547 5547 5544 5541 5538 5536 5534 5532 5529 5525 5523 5523 5523 5523 5524 5525 5525 5525 5526 5526 5527 5527 5527 5527 5527 5526 5526 5525 5525 5525 5524
5493 5499 5498 5499 5503 5505 5510 5515 5517 5520 5531 5541 5539 5540 5540 5539 5537 5537 5536 5534 5530 5526 5521 5519 5518 5517 5516 5516 5517 5517 5517 5517 5517 5517 5517 5518 5517 5516 5515 5514 5514 5513 5513 5512
5483 5490 5497 5494 5508 5507 5507 5512 5515 5521 5538 5537 5535 5537 5539 5538 5536 5539 5539 5535 5529 5525 5521 5517 5514 5512 5510 5510 5510 5509 5509 5509 5508 5509 5509 5508 5507 5506 5505 5503 5502 5501 5500 5500
5472 5483 5479 5508 5517 5513 5510 5516 5515 5522 5529 5531 5536 5539 5539 5538 5536 5537 5537 5533 5529 5522 5517 5512 5509 5506 5504 5503 5502 5502 5501 5501 5501 5501 5500 5499 5498 5496 5495 5493 5492 5490 5489 5488
5466 5467 5480 5501 5512 5508 5505 5511 5518 5519 5527 5528 5529 5529 5532 5535 5535 5537 5535 5531 5526 5519 5513 5507 5503 5501 5498 5496 5495 5495 5495 5495 5494 5494 5492 5491 5489 5487 5486 5484 5482 5480 5479 5477
5469 5475 5481 5503 5512 5511 5509 5510 5522 5520 5521 5522 5521 5520 5532 5534 5531 5529 5527 5522 5517 5511 5506 5502 5498 5496 5493 5491 5490 5489 5489 5488 5487 5486 5485 5484 5481 5479 5477 5475 5473 5472 5470 5468
5469 5473 5480 5498 5504 5506 5503 5509 5518 5517 5518 5518 5517 5524 5526 5526 5524 5521 5517 5513 5509 5505 5502 5498 5494 5491 5488 5486 5486 5485 5484 5482 5481 5479 5478 5476 5473 5471 5469 5467 5465 5463 5462 5460
5467 5471 5478 5501 5499 5496 5499 5505 5508 5512 5515 5515 5515 5517 5517 5515 5512 5509 5506 5504 5501 5498 5495 5492 5490 5487 5485 5482 5482 5480 5478 5476 5474 5473 5471 5469 5466 5464 5462 5460 5458 5456 5454 5453
5470 5481 5489 5490 5492 5493 5492 5495 5500 5504 5508 5510 5511 5511 5510 5507 5503 5501 5499 5497 5495 5493 5489 5486 5485 5484 5481 5479 5477 5475 5473 5471 5469 5467 5465 5463 5460 5457 5455 5453 5451 5450 5448 5447
5464 5474 5478 5481 5482 5483 5486 5489 5493 5498 5502 5505 5507 5506 5504 5501 5498 5496 5494 5491 5490 5487 5485 5483 5481 5480 5479 5476 5473 5471 5468 5466 5463 5461 5458 5456 5454 5453 5450 5448 5446 5446 5444 5442
5457 5465 5469 5477 5475 5476 5479 5483 5487 5491 5495 5498 5500 5500 5499 5496 5494 5493 5491 5488 5486 5485 5484 5483 5480 5477 5475 5473 5470 5467 5464 5461 5459 5457 5454 5451 5450 5448 5447 5445 5443 5442 5440 5438
5446 5451 5450 5460 5465 5466 5470 5474 5477 5481 5486 5489 5492 5493 5494 5493 5491 5489 5487 5485 5483 5482 5482 5480 5478 5476 5473 5471 5468 5464 5461 5458 5455 5453 5450 5447 5445 5443 5443 5442 5442 5440 5438 5434
5428 5436 5439 5447 5452 5456 5459 5463 5467 5471 5476 5479 5482 5484 5486 5485 5485 5484 5482 5481 5480 5480 5479 5478 5476 5474 5472 5469 5466 5463 5461 5457 5453 5450 5447 5444 5441 5439 5437 5437 5436 5435 5433 5430
5421 5424 5433 5439 5442 5446 5449 5453 5457 5461 5464 5468 5471 5473 5475 5476 5476 5476 5476 5476 5476 5475 5475 5474 5473 5472 5470 5467 5463 5461 5458 5456 5452 5448 5445 5442 5439 5436 5433 5430 5428 5426 5425 5424
5414 5415 5420 5426 5430 5435 5439 5442 5446 5450 5453 5456 5458 5461 5463 5465 5467 5468 5469 5469 5469 5469 5469 5469 5468 5468 5466 5464 5461 5458 5455 5452 5449 5445 5441 5438 5435 5431 5428 5425 5422 5420 5417 5414
5406 5410 5414 5417 5420 5424 5427 5431 5435 5439 5442 5445 5447 5449 5452 5454 5456 5457 5459 5460 5461 5462 5462 5462 5463 5463 5462 5460 5457 5454 5451 5449 5445 5441 5437 5433 5430 5426 5423 5420 5417 5414 5411 5408
5399 5405 5407 5408 5411 5413 5415 5418 5421 5426 5429 5432 5435 5438 5441 5443 5445 5447 5449 5450 5452 5453 5454 5454 5455 5455 5455 5454 5452 5449 5446 5444 5441 5436 5432 5429 5426 5423 5420 5416 5412 5409 5406 5403
5391 5393 5396 5399 5401 5404 5405 5407 5409 5412 5415 5419 5423 5426 5429 5431 5434 5436 5437 5440 5442 5444 5444 5445 5447 5447 5447 5446 5445 5443 5440 5437 5434 5431 5428 5424 5421 5418 5414 5411 5407 5403 5400 5396
5384 5385 5387 5389 5390 5393 5395 5397 5398 5400 5403 5407 5411 5413 5416 5419 5422 5424 5427 5429 5432 5433 5435 5436 5439 5439 5438 5438 5437 5434 5432 5430 5427 5424 5421 5419 5416 5411 5408 5405 5401 5398 5394 5390
5376 5378 5379 5380 5382 5383 5385 5386 5388 5389 5392 5396 5399 5402 5405 5408 5411 5414 5418 5420 5420 5421 5424 5427 5429 5429 5429 5429 5428 5426 5424 5422 5419 5417 5414 5411 5409 5406 5402 5399 5395 5392 5388 5384
5369 5370 5371 5372 5374 5375 5376 5377 5379 5381 5384 5387 5390 5392 5395 5398 5401 5404 5408 5411 5412 5413 5416 5419 5420 5420 5421 5420 5420 5417 5415 5414 5411 5409 5406 5404 5401 5399 5395 5392 5389 5386 5382 5379
5363 5364 5365 5366 5367 5368 5369 5370 5372 5374 5376 5379 5381 5384 5386 5389 5392 5396 5399 5400 5402 5406 5408 5410 5411 5413 5413 5413 5411 5409 5407 5406 5404 5401 5399 5397 5394 5392 5389 5385 5382 5379 5376 5373
5356 5357 5358 5359 5360 5361 5363 5364 5365 5367 5369 5371 5374 5376 5378 5380 5383 5386 5389 5391 5394 5398 5400 5401 5404 5406 5406 5405 5403 5402 5400 5398 5396 5395 5392 5390 5388 5385 5382 5379 5377 5374 5371 5367
5349 5351 5352 5353 5353 5354 5356 5358 5359 5361 5362 5365 5367 5369 5370 5373 5375 5377 5379 5382 5386 5390 5391 5394 5396 5398 5398 5396 5395 5394 5392 5391 5389 5388 5386 5384 5381 5379 5376 5373 5371 5368 5365 5362
5340 5342 5343 5345 5347 5349 5350 5351 5352 5354 5357 5359 5361 5362 5364 5365 5367 5369 5371 5374 5378 5381 5383 5385 5387 5389 5388 5388 5387 5386 5385 5383 5382 5380 5379 5377 5375 5372 5370 5367 5365 5362 5359 5356
5331 5335 5337 5339 5341 5342 5344 5344 5346 5348 5350 5353 5355 5356 5357 5358 5360 5362 5364 5366 5369 5372 5373 5375 5376 5378 5379 5379 5378 5378 5377 5376 5375 5373 5371 5370 5368 5366 5364 5362 5359 5357 5354 5351
5323 5326 5329 5332 5334 5336 5337 5338 5340 5342 5344 5345 5347 5349 5350 5352 5353 5355 5356 5358 5360 5362 5363 5365 5367 5368 5369 5369 5369 5369 5368 5367 5366 5365 5364 5363 5361 5360 5358 5356 5354 5351 5348 5346